Regional Weather Roundup
Issued by NWS

Home | Current Version | Previous Version | Graphics & Text | Print | Product List | Glossary On
Versions: 1 2 3 4 5 6 7 8 9 10 11 12 13 14 15 16 17 18 19 20 21 22 23 24 25 26 27 28 29 30 31 32 33 34 35 36 37 38 39 40 41 42 43 44 45 46 47 48 49 50
000
ASUS43 KIND 271209
RWRIN

WEATHER ROUNDUP FOR INDIANA
NATIONAL WEATHER SERVICE INDIANAPOLIS IN
700 AM EST SAT DEC 27 2014

NOTE: "FAIR" INDICATES FEW OR NO CLOUDS BELOW 12,000 FEET WITH NO
SIGNIFICANT WEATHER AND/OR OBSTRUCTIONS TO VISIBILITY.

* - STATION DOES NOT REPORT WEATHER SUCH AS PRECIPITATION OR FOG.

+ - STATION NOT QUALITY CONTROLLED BY THE NATIONAL WEATHER SERVICE.
    USE DATA WITH CAUTION...ESPECIALLY DEWPOINT AND RELATIVE
    HUMIDITY OBSERVATIONS.

INZ001>003-010>013-019-020-271300-
NORTHWEST INDIANA

CITY           SKY/WX    TMP DP  RH WIND       PRES   REMARKS
GARY /AIRPORT/ CLOUDY    48  43  81 S8G23     30.00R
KNOX *+        CLOUDY    44  40  86 S14       30.02S
LA PORTE +     CLOUDY    46  46 100 S9        30.02R FOG
6HR MIN TEMP:  46; 6HR MAX TEMP:  47; 6HR PCP:  0.01;

MICHIGAN CITY+ CLOUDY    45  43  93 S12G18    30.01R
MONTICELLO +   CLOUDY    44  43  98 S12       30.05S
RENSSELAER +   CLOUDY    45  45 100 S14       30.04R
VALPARAISO     CLOUDY    44  43  96 S12G22    30.02R
6HR MIN TEMP:  44; 6HR MAX TEMP:  45; 6HR PCP:  0.02;


$$

LMZ046-743>745-271300-
SOUTHERN LAKE MICHIGAN

STATION/POSITION TIME  TEMP WIND        PRES
                       AIR  DIR/SP/G
                 (UTC) (F)  (DEG/KT/KT) (MB)
MICHIGAN CITY    1200   45  170/ 16/ 20   N/A

$$

INZ004-005-014>016-021>024-271300-
NORTH CENTRAL INDIANA

CITY           SKY/WX    TMP DP  RH WIND       PRES   REMARKS
GOSHEN         CLOUDY    44  42  93 S16       30.04S FOG
6HR MIN TEMP:  44; 6HR MAX TEMP:  47; 6HR PCP:  0.06;

LOGANSPORT +   DRIZZLE   43  41  93 S10       30.07S
PERU/GRISSOM   CLOUDY    43  43 100 S12       30.06S
6HR MIN TEMP:  43; 6HR MAX TEMP:  47; 6HR PCP:  0.05;

ROCHESTER +    CLOUDY    45  45 100 S10       30.05F FOG
SOUTH BEND     CLOUDY    45  43  93 S14       30.03F FOG
6HR MIN TEMP:  45; 6HR MAX TEMP:  48; 6HR PCP:  0.04;

WARSAW +       LGT RAIN  43  41  93 S6        30.06S

$$

INZ006>009-017-018-025>027-271300-
NORTHEAST INDIANA

CITY           SKY/WX    TMP DP  RH WIND       PRES   REMARKS
ANGOLA *+      CLOUDY    43  43 100 S8        30.06R
AUBURN +       LGT RAIN  45  39  81 SW7       30.08R
FORT WAYNE     LGT RAIN  45  39  79 S14       30.09F
6HR MIN TEMP:  44; 6HR MAX TEMP:  46; 6HR PCP:  0.01;

HUNTINGTON +   LGT RAIN  43  40  88 S8        30.09R
6HR MIN TEMP:  43; 6HR MAX TEMP:  46;


$$

INZ028-029-035-036-043>045-051>053-271300-
WEST CENTRAL INDIANA

CITY           SKY/WX    TMP DP  RH WIND       PRES   REMARKS
CRAWFORDSVL +  CLOUDY    41  39  93 S8        30.08  FOG
GREENCASTLE +  CLOUDY    43  37  81 S9        30.10F
LAFAYETTE      CLOUDY    44  43  96 S9        30.07S FOG
6HR MIN TEMP:  43; 6HR MAX TEMP:  48; 6HR PCP:  0.03;

TERRE HAUTE    CLOUDY    44  42  93 S8        30.11R
6HR MIN TEMP:  43; 6HR MAX TEMP:  47; 6HR PCP:  0.05;


$$

INZ030>032-037>040-046>048-054>057-064-065-271300-
CENTRAL INDIANA

CITY           SKY/WX    TMP DP  RH WIND       PRES   REMARKS
CP ATTERBURY + LGT RAIN  41  36  81 MISG      30.16S
COLUMBUS       CLOUDY    41  37  87 S7        30.17
FRANKFORT +    CLOUDY   N/A N/A N/A SE13      30.08F HAZE
GREENWOOD *+   CLOUDY    45  39  81 S7        30.15
INDIANAPOLIS   LGT RAIN  42  40  92 S13       30.12S FOG
6HR MIN TEMP:  42; 6HR MAX TEMP:  46; 6HR PCP:  0.03;

-EAGLE CREEK   CLOUDY    42  41  96 S8        30.12S FOG
6HR MIN TEMP:  42; 6HR MAX TEMP:  47; 6HR PCP:  0.03;

KOKOMO *+      MOCLDY    43  39  87 S14       30.08S
MARION +       CLOUDY    42  38  84 S12       30.11S
MT COMFORT *+  CLOUDY    41  41 100 S10       30.14S
SHELBYVILLE    RAIN      43  38  82 S9        30.15S
6HR MIN TEMP:  43; 6HR MAX TEMP:  47; 6HR PCP:  0.04;

ZIONSVILLE +   CLOUDY    43  39  86 S12G17    30.11S
6HR MIN TEMP:  43; 6HR MAX TEMP:  47; 6HR PCP:  0.01;


$$

INZ033-034-041-042-049-050-058-059-271300-
EAST CENTRAL INDIANA

CITY           SKY/WX    TMP DP  RH WIND       PRES   REMARKS
MUNCIE         LGT RAIN  44  37  76 S12G18    30.12R
6HR MIN TEMP:  44; 6HR MAX TEMP:  48; 6HR PCP:  0.01;


$$

INZ060-061-067>069-081>083-085>088-271300-
SOUTHWEST INDIANA

CITY           SKY/WX    TMP DP  RH WIND       PRES   REMARKS
EVANSVILLE     CLOUDY    46  43  89 S7        30.16S FOG
6HR MIN TEMP:  46; 6HR MAX TEMP:  50; 6HR PCP:  0.14;

HUNTINGBURG *+ CLOUDY    45  39  81 S7        30.18R
6HR MIN TEMP:  45; 6HR MAX TEMP:  46; 6HR PCP:  0.09;

WASHINGTON +   RAIN      43  40  88 S8        30.14F
6HR MIN TEMP:  42; 6HR MAX TEMP:  44; 6HR PCP:  0.07;


$$

INZ062-063-066-070>080-084-089>092-271300-
SOUTH CENTRAL AND SOUTHEAST INDIANA

CITY           SKY/WX    TMP DP  RH WIND       PRES   REMARKS
BLOOMINGTON    LGT RAIN  43  42  97 S7        30.13F FOG
6HR MIN TEMP:  40; 6HR MAX TEMP:  45; 6HR PCP:  0.07;

NORTH VERNON + RAIN      43  41  93 CALM      30.18

$$



USA.gov is the U.S. government's official web portal to all federal, state and local government web resources and services.